1514016000.14,20963,7.5,73150.0,-11.15,-11.55,-11.59,0,*66
1514016001.41,20964,7.5,73150.8,-11.15,-11.59,-11.59,0,*6D
1514016002.67,20965,7.5,73146.8,-11.15,-11.55,-11.55,0,*6C
1514016003.97,20966,7.5,73166.0,-11.17,-11.63,-11.63,0,*6D
1514016005.24,20967,7.5,73164.8,-11.15,-11.63,-11.59,0,*67
1514016006.53,20968,7.5,73138.3,-11.17,-11.63,-11.63,0,*63
1514016007.8,20969,7.5,73136.0,-11.15,-11.59,-11.59,0,*60
1514016009.06,20970,7.5,73136.8,-11.15,-11.55,-11.59,0,*64
1514016010.33,20971,7.5,73134.0,-11.15,-11.59,-11.59,0,*69
1514016011.62,20972,7.5,73136.3,-11.17,-11.73,-11.63,0,*69
1514016012.88,20973,7.5,73118.0,-11.15,-11.59,-11.59,0,*6B
1514016014.15,20974,7.5,73132.5,-11.15,-11.55,-11.55,0,*6C
1514016015.42,20975,7.5,73150.5,-11.15,-11.63,-11.59,0,*64
1514016016.68,20976,7.5,73154.5,-11.15,-11.59,-11.59,0,*6E
1514016017.95,20977,7.5,73148.0,-11.15,-11.59,-11.59,0,*6F
1514016019.21,20978,7.5,73166.5,-11.15,-11.63,-11.59,0,*69
1514016020.47,20979,7.5,73160.3,-11.15,-11.59,-11.59,0,*61
1514016021.74,20980,7.5,73152.5,-11.15,-11.59,-11.59,0,*67
1514016023.0,20981,7.5,73158.8,-11.15,-11.59,-11.59,0,*66
1514016024.27,20982,7.5,73150.0,-11.15,-11.59,-11.59,0,*65
1514016025.54,20983,7.5,73158.5,-11.15,-11.59,-11.67,0,*69
1514016026.8,20984,7.5,73168.0,-11.15,-11.59,-11.59,0,*63
1514016028.07,20985,7.5,73164.5,-11.15,-11.55,-11.59,0,*6E
1514016029.33,20986,7.5,73160.3,-11.15,-11.67,-11.59,0,*6C
1514016030.59,20987,7.5,73154.5,-11.15,-11.67,-11.59,0,*6D
1514016031.86,20988,7.5,73158.8,-11.15,-11.59,-11.67,0,*62
1514016033.12,20989,7.5,73152.0,-11.15,-11.73,-11.67,0,*6B
1514016034.41,20990,7.5,73152.0,-11.17,-11.63,-11.59,0,*6D
1514016035.68,20991,7.5,73154.8,-11.15,-11.67,-11.67,0,*67
1514016036.97,20992,7.5,73152.5,-11.13,-11.67,-11.59,0,*6F
1514016038.24,20993,7.5,73150.3,-11.15,-11.59,-11.59,0,*65
1514016039.5,20994,7.5,73134.3,-11.15,-11.59,-11.55,0,*6E
1514016040.77,20995,7.5,73132.3,-11.15,-11.59,-11.59,0,*63
1514016042.03,20996,7.5,73132.0,-11.15,-11.59,-11.59,0,*60
1514016043.3,20997,7.5,73138.0,-11.15,-11.59,-11.59,0,*61
1514016044.6,20998,7.5,73144.5,-11.17,-11.63,-11.63,0,*6C
1514016045.86,20999,7.5,73146.8,-11.15,-11.59,-11.67,0,*62
1514016047.15,21000,7.5,73152.3,-11.17,-11.63,-11.73,0,*64
1514016048.42,21001,7.5,73170.5,-11.15,-11.59,-11.55,0,*6A
1514016049.69,21002,7.5,73168.8,-11.15,-11.59,-11.59,0,*65
1514016050.95,21003,7.5,73166.3,-11.15,-11.59,-11.59,0,*64
1514016052.22,21004,7.5,73168.0,-11.15,-11.59,-11.59,0,*63
1514016053.48,21005,7.5,73168.5,-11.15,-11.59,-11.59,0,*62
1514016054.75,21006,7.5,73180.0,-11.15,-11.59,-11.59,0,*61
1514016056.04,21007,7.5,73180.3,-11.17,-11.63,-11.63,0,*62
1514016057.31,21008,7.5,73186.0,-11.15,-11.59,-11.59,0,*6F
1514016058.57,21009,7.5,73184.5,-11.15,-11.55,-11.55,0,*6E
1514016059.84,21010,7.5,73184.5,-11.15,-11.59,-11.59,0,*66
1514016061.13,21011,7.5,73194.3,-11.13,-11.59,-11.55,0,*6D
1514016062.42,21012,7.5,73176.8,-11.13,-11.67,-11.59,0,*6F
1514016063.71,21013,7.5,73184.8,-11.13,-11.59,-11.59,0,*63
1514016064.98,21014,7.5,73186.0,-11.15,-11.55,-11.59,0,*6E
1514016066.24,21015,7.5,73170.5,-11.15,-11.67,-11.67,0,*63
1514016067.51,21016,7.5,73160.5,-11.15,-11.67,-11.59,0,*6D
1514016068.78,21017,7.5,73166.5,-11.15,-11.59,-11.67,0,*6C
1514016070.04,21018,7.5,73144.8,-11.15,-11.59,-11.59,0,*6E
1514016071.31,21019,7.5,73154.8,-11.15,-11.55,-11.55,0,*6F
1514016072.57,21020,7.5,73140.8,-11.15,-11.67,-11.59,0,*68
1514016073.86,21021,7.5,73132.8,-11.13,-11.59,-11.55,0,*6E
1514016075.15,21022,7.5,73146.8,-11.13,-11.67,-11.59,0,*6C
1514016076.45,21023,7.5,73152.5,-11.13,-11.59,-11.59,0,*60
1514016077.71,21024,7.5,73154.3,-11.15,-11.59,-11.59,0,*61
1514016078.97,21025,7.5,73144.0,-11.15,-11.59,-11.59,0,*60
1514016080.24,21026,7.5,73144.3,-11.15,-11.67,-11.59,0,*6E
1514016081.5,21027,7.5,73140.8,-11.15,-11.59,-11.59,0,*62
1514016082.8,21028,7.5,73142.8,-11.13,-11.59,-11.67,0,*66
1514016084.09,21029,7.5,73144.8,-11.13,-11.59,-11.59,0,*6A
1514016085.38,21030,7.5,73134.3,-11.13,-11.59,-11.59,0,*62
1514016086.67,21031,7.5,73136.3,-11.13,-11.59,-11.59,0,*63
1514016087.96,21032,7.5,73136.5,-11.13,-11.55,-11.67,0,*61
1514016089.25,21033,7.5,73138.3,-11.13,-11.59,-11.59,0,*61
1514016090.54,21034,7.5,73144.0,-11.13,-11.59,-11.59,0,*66
1514016091.83,21035,7.5,73146.8,-11.13,-11.59,-11.55,0,*6B
1514016093.13,21036,7.5,73148.0,-11.13,-11.59,-11.59,0,*64
1514016094.39,21037,7.5,73146.0,-11.11,-11.63,-11.51,0,*66
1514016095.68,21038,7.5,73154.8,-11.13,-11.59,-11.59,0,*6A
1514016096.97,21039,7.5,73160.8,-11.13,-11.59,-11.59,0,*6B
1514016098.24,21040,7.5,73158.0,-11.11,-11.67,-11.55,0,*66
1514016099.53,21041,7.5,73156.0,-11.13,-11.59,-11.55,0,*68
1514016100.79,21042,7.5,73164.0,-11.11,-11.55,-11.51,0,*61
1514016102.08,21043,7.5,73178.8,-11.13,-11.59,-11.59,0,*66
1514016103.35,21044,7.5,73158.5,-11.11,-11.63,-11.51,0,*62
1514016104.64,21045,7.5,73162.8,-11.13,-11.59,-11.55,0,*6C
1514016105.93,21046,7.5,73156.8,-11.13,-11.59,-11.59,0,*63
1514016107.22,21047,7.5,73154.8,-11.13,-11.59,-11.55,0,*6E
1514016108.52,21048,7.5,73162.0,-11.13,-11.59,-11.55,0,*61
1514016109.81,21049,7.5,73158.5,-11.13,-11.59,-11.55,0,*60
1514016111.07,21050,7.5,73168.3,-11.11,-11.55,-11.51,0,*62
1514016112.34,21051,7.5,73154.8,-11.11,-11.55,-11.55,0,*67
1514016113.63,21052,7.5,73164.0,-11.13,-11.59,-11.59,0,*66
1514016114.92,21053,7.5,73168.8,-11.13,-11.59,-11.59,0,*67
1514016116.21,21054,7.5,73176.0,-11.13,-11.55,-11.59,0,*6C
1514016117.5,21055,7.5,73166.5,-11.13,-11.59,-11.67,0,*6C
1514016118.79,21056,7.5,73138.8,-11.13,-11.59,-11.59,0,*62
1514016120.06,21057,7.5,73130.0,-11.11,-11.55,-11.55,0,*61
1514016121.35,21058,7.5,73154.3,-11.13,-11.59,-11.55,0,*60
1514016122.62,21059,7.5,73172.0,-11.11,-11.51,-11.55,0,*6B
1514016123.91,21060,7.5,73170.5,-11.13,-11.59,-11.59,0,*67
1514016125.17,21061,7.5,73186.3,-11.11,-11.55,-11.55,0,*64
1514016126.47,21062,7.5,73202.0,-11.13,-11.59,-11.55,0,*69
1514016127.76,21063,7.5,73190.5,-11.13,-11.59,-11.59,0,*64
1514016129.05,21064,7.5,73184.8,-11.13,-11.55,-11.59,0,*6F
1514016130.34,21065,7.5,73184.5,-11.13,-11.59,-11.59,0,*62
1514016131.63,21066,7.5,73172.0,-11.13,-11.59,-11.59,0,*61
1514016132.92,21067,7.5,73176.3,-11.13,-11.59,-11.59,0,*60
1514016134.18,21068,7.5,73166.3,-11.11,-11.55,-11.55,0,*6D
1514016135.45,21069,7.5,73160.3,-11.11,-11.55,-11.55,0,*6C
1514016136.71,21070,7.5,73170.5,-11.11,-11.55,-11.51,0,*60
1514016138.01,21071,7.5,73172.5,-11.13,-11.67,-11.55,0,*66
1514016139.28,21072,7.5,73188.5,-11.11,-11.55,-11.63,0,*63
1514016140.54,21073,7.5,73192.5,-11.11,-11.55,-11.55,0,*67
1514016141.81,21074,7.5,73188.5,-11.11,-11.55,-11.55,0,*60
1514016143.08,21075,7.5,73182.3,-11.11,-11.63,-11.63,0,*61
1514016144.35,21076,7.5,73180.5,-11.11,-11.63,-11.55,0,*67
1514016145.64,21077,7.5,73190.5,-11.13,-11.59,-11.59,0,*61
1514016146.9,21078,7.5,73192.3,-11.11,-11.55,-11.51,0,*68
1514016148.19,21079,7.5,73164.8,-11.13,-11.59,-11.59,0,*6F
1514016149.46,21080,7.5,73142.8,-11.11,-11.55,-11.55,0,*6B
1514016150.75,21081,7.5,73166.0,-11.13,-11.59,-11.59,0,*68
1514016152.01,21082,7.5,73164.0,-11.11,-11.59,-11.59,0,*69
1514016153.28,21083,7.5,73148.0,-11.11,-11.55,-11.55,0,*68
1514016154.54,21084,7.5,73178.3,-11.11,-11.55,-11.55,0,*6F
1514016155.81,21085,7.5,73156.8,-11.11,-11.55,-11.55,0,*6E
1514016157.07,21086,7.5,73154.8,-11.11,-11.55,-11.55,0,*6D
1514016158.34,21087,7.5,73162.5,-11.11,-11.51,-11.51,0,*6C
1514016159.6,21088,7.5,73144.8,-11.11,-11.55,-11.51,0,*67
1514016160.86,21089,7.5,73148.8,-11.11,-11.51,-11.55,0,*66
1514016162.13,21090,7.5,73146.3,-11.11,-11.55,-11.55,0,*6A
1514016163.39,21091,7.5,73158.0,-11.11,-11.55,-11.55,0,*6B
1514016164.68,21092,7.5,73168.8,-11.13,-11.59,-11.59,0,*6A
1514016165.97,21093,7.5,73172.8,-11.13,-11.59,-11.59,0,*6B
1514016167.26,21094,7.5,73164.0,-11.13,-11.55,-11.59,0,*60
1514016168.53,21095,7.5,73132.3,-11.11,-11.55,-11.55,0,*6F
1514016169.79,21096,7.5,73120.3,-11.11,-11.55,-11.51,0,*68
1514016171.06,21097,7.5,73122.3,-11.11,-11.55,-11.55,0,*6D
1514016172.32,21098,7.5,73142.5,-11.11,-11.51,-11.51,0,*62
1514016173.61,21099,7.5,73100.0,-11.13,-11.59,-11.59,0,*61
1514016174.9,21100,7.5,73190.0,-11.13,-11.59,-11.59,0,*60
1514016176.17,21101,7.5,73152.3,-11.11,-11.63,-11.55,0,*66
1514016177.46,21102,7.5,73126.3,-11.13,-11.59,-11.59,0,*62
1514016178.72,21103,7.5,73116.3,-11.11,-11.55,-11.55,0,*61
1514016179.99,21104,7.5,73086.8,-11.11,-11.55,-11.55,0,*66
1514016181.26,21105,7.5,73096.8,-11.11,-11.55,-11.55,0,*67
1514016182.55,21106,7.5,73140.8,-11.13,-11.67,-11.59,0,*6B
1514016183.81,21107,7.5,73150.0,-11.11,-11.63,-11.55,0,*60
1514016185.08,21108,7.5,73136.3,-11.11,-11.63,-11.55,0,*6F
1514016186.35,21109,7.5,73138.3,-11.11,-11.63,-11.55,0,*6E
1514016187.61,21110,7.5,73202.0,-11.11,-11.55,-11.55,0,*63
1514016188.9,21111,7.5,73152.8,-11.13,-11.59,-11.73,0,*68
1514016190.19,21112,7.5,73156.3,-11.13,-11.67,-11.59,0,*6E
1514016191.46,21113,7.5,73150.0,-11.11,-11.63,-11.63,0,*60
1514016192.73,21114,7.5,73170.0,-11.11,-11.55,-11.63,0,*62
1514016194.0,21115,7.5,73182.3,-11.11,-11.55,-11.67,0,*67
1514016195.27,21116,7.5,73218.3,-11.11,-11.55,-11.63,0,*60
1514016196.54,21117,7.5,73210.8,-11.11,-11.63,-11.63,0,*64
1514016197.81,21118,7.5,73152.5,-11.11,-11.63,-11.63,0,*6B
1514016199.07,21119,7.5,73068.8,-11.11,-11.51,-11.55,0,*6E
1514016200.34,21120,7.5,73122.0,-11.11,-11.63,-11.55,0,*65
1514016201.61,21121,7.5,73132.8,-11.11,-11.63,-11.63,0,*61
1514016202.88,21122,7.5,73154.0,-11.11,-11.63,-11.63,0,*62
1514016204.15,21123,7.5,73146.8,-11.11,-11.67,-11.63,0,*67
1514016205.42,21124,7.5,73126.5,-11.11,-11.63,-11.63,0,*64
1514016206.69,21125,7.5,73132.5,-11.11,-11.55,-11.55,0,*65
1514016207.96,21126,7.5,73134.8,-11.11,-11.63,-11.55,0,*63
1514016209.22,21127,7.5,73134.8,-11.11,-11.63,-11.55,0,*62
1514016210.49,21128,7.5,73146.8,-11.11,-11.63,-11.55,0,*6D
1514016211.76,21129,7.5,73130.8,-11.11,-11.63,-11.63,0,*69
1514016213.05,21130,7.5,73130.5,-11.13,-11.67,-11.55,0,*62
1514016214.34,21131,7.5,73126.8,-11.13,-11.67,-11.67,0,*62
1514016215.61,21132,7.5,73142.3,-11.11,-11.63,-11.55,0,*66
1514016216.9,21133,7.5,73152.3,-11.13,-11.67,-11.55,0,*61
1514016218.17,21134,7.5,73132.5,-11.11,-11.67,-11.63,0,*61
1514016219.44,21135,7.5,73134.0,-11.11,-11.55,-11.55,0,*64
1514016220.73,21136,7.5,73128.3,-11.13,-11.59,-11.67,0,*68
1514016222.0,21137,7.5,73138.3,-11.11,-11.63,-11.63,0,*66
1514016223.29,21138,7.5,73148.3,-11.13,-11.59,-11.59,0,*6B
1514016224.56,21139,7.5,73152.3,-11.11,-11.63,-11.55,0,*6D
1514016225.83,21140,7.5,73148.8,-11.11,-11.55,-11.55,0,*66
1514016227.09,21141,7.5,73160.3,-11.11,-11.63,-11.55,0,*62
1514016228.36,21142,7.5,73162.0,-11.11,-11.63,-11.55,0,*61
1514016229.63,21143,7.5,73168.0,-11.11,-11.63,-11.63,0,*65
1514016230.9,21144,7.5,73138.8,-11.11,-11.55,-11.55,0,*62
1514016232.17,21145,7.5,73140.0,-11.11,-11.63,-11.67,0,*67
1514016233.44,21146,7.5,73164.3,-11.11,-11.63,-11.63,0,*60
1514016234.7,21147,7.5,73142.0,-11.11,-11.67,-11.67,0,*61
1514016235.97,21148,7.5,73150.5,-11.11,-11.63,-11.63,0,*6E
1514016237.26,21149,7.5,73170.0,-11.13,-11.73,-11.67,0,*68
1514016238.55,21150,7.5,73176.5,-11.13,-11.59,-11.67,0,*68
1514016239.84,21151,7.5,73172.3,-11.13,-11.73,-11.59,0,*6C
1514016241.11,21152,7.5,73172.0,-11.11,-11.55,-11.55,0,*65
1514016242.37,21153,7.5,73148.0,-11.11,-11.63,-11.55,0,*61
1514016243.64,21154,7.5,73180.3,-11.11,-11.63,-11.63,0,*63
1514016244.91,21155,7.5,73168.3,-11.11,-11.63,-11.63,0,*62
1514016246.18,21156,7.5,73170.0,-11.11,-11.67,-11.63,0,*65
1514016247.47,21157,7.5,73168.8,-11.13,-11.73,-11.67,0,*67
1514016248.74,21158,7.5,73174.8,-11.11,-11.63,-11.63,0,*6F
1514016250.01,21159,7.5,73178.8,-11.11,-11.63,-11.55,0,*6B
1514016251.28,21160,7.5,73184.8,-11.11,-11.55,-11.63,0,*61
1514016252.55,21161,7.56,73152.0,-11.11,-11.63,-11.63,0,*65
1514016253.82,21162,7.5,73168.8,-11.11,-11.63,-11.63,0,*66
1514016255.09,21163,7.5,73190.5,-11.11,-11.63,-11.63,0,*67
1514016256.38,21164,7.5,73202.0,-11.13,-11.73,-11.73,0,*62
1514016257.64,21165,7.5,73198.8,-11.11,-11.63,-11.55,0,*64
1514016258.91,21166,7.5,73182.8,-11.11,-11.67,-11.63,0,*66
1514016260.21,21167,7.5,73170.8,-11.13,-11.67,-11.67,0,*61
1514016261.48,21168,7.5,73156.3,-11.11,-11.67,-11.63,0,*68
1514016262.75,21169,7.56,73172.5,-11.11,-11.55,-11.63,0,*68
1514016264.02,21170,7.5,73174.8,-11.11,-11.63,-11.63,0,*65
1514016265.28,21171,7.5,73194.0,-11.11,-11.63,-11.55,0,*61
1514016266.55,21172,7.5,73196.0,-11.11,-11.63,-11.67,0,*63
1514016267.82,21173,7.5,73188.0,-11.11,-11.63,-11.67,0,*62
1514016269.09,21174,7.5,73188.5,-11.11,-11.63,-11.63,0,*61
1514016270.35,21175,7.5,73196.3,-11.11,-11.55,-11.67,0,*61
1514016271.62,21176,7.5,73188.0,-11.11,-11.63,-11.55,0,*66
1514016272.89,21177,7.5,73162.0,-11.11,-11.67,-11.63,0,*66
1514016274.16,21178,7.5,73184.8,-11.11,-11.67,-11.55,0,*6C
1514016275.42,21179,7.5,73192.5,-11.11,-11.63,-11.67,0,*68
1514016276.69,21180,7.5,73158.3,-11.11,-11.63,-11.55,0,*6F
1514016277.96,21181,7.5,73158.0,-11.11,-11.63,-11.63,0,*6B
1514016279.25,21182,7.5,73168.8,-11.09,-11.63,-11.63,0,*61
1514016280.54,21183,7.5,73180.3,-11.09,-11.67,-11.67,0,*60
1514016281.83,21184,7.5,73178.0,-11.13,-11.67,-11.67,0,*6C
1514016283.1,21185,7.5,73174.8,-11.11,-11.67,-11.55,0,*6E
1514016284.37,21186,7.5,73164.0,-11.11,-11.55,-11.63,0,*69
1514016285.64,21187,7.5,73158.8,-11.11,-11.63,-11.63,0,*6D
1514016286.91,21188,7.5,73150.0,-11.11,-11.67,-11.63,0,*66
1514016288.18,21189,7.5,73106.0,-11.11,-11.63,-11.63,0,*63
1514016289.45,21190,7.5,73138.3,-11.11,-11.63,-11.55,0,*6E
1514016290.72,21191,7.5,73148.5,-11.11,-11.63,-11.63,0,*6A
1514016291.98,21192,7.5,73140.5,-11.11,-11.55,-11.67,0,*68
1514016293.25,21193,7.5,73160.0,-11.11,-11.63,-11.67,0,*6C
1514016294.52,21194,7.5,73160.8,-11.11,-11.63,-11.63,0,*6F
1514016295.79,21195,7.5,73170.8,-11.11,-11.67,-11.63,0,*6A
1514016297.06,21196,7.5,73172.3,-11.11,-11.67,-11.55,0,*6C
1514016298.33,21197,7.5,73154.8,-11.11,-11.63,-11.63,0,*6C
1514016299.59,21198,7.5,73160.0,-11.11,-11.63,-11.55,0,*66
1514016300.86,21199,7.5,73158.0,-11.11,-11.63,-11.67,0,*66
1514016302.13,21200,7.5,73168.5,-11.11,-11.63,-11.63,0,*61
1514016303.4,21201,7.5,73160.0,-11.11,-11.63,-11.63,0,*60
1514016304.67,21202,7.5,73168.0,-11.11,-11.63,-11.63,0,*63
1514016305.94,21203,7.56,73162.8,-11.11,-11.63,-11.67,0,*66
1514016307.21,21204,7.5,73156.0,-11.11,-11.63,-11.63,0,*65
1514016308.48,21205,7.56,73162.5,-11.11,-11.67,-11.63,0,*60
1514016309.75,21206,7.5,73152.3,-11.11,-11.63,-11.67,0,*63
1514016311.01,21207,7.5,73158.5,-11.11,-11.63,-11.55,0,*63
1514016312.28,21208,7.5,73160.8,-11.11,-11.63,-11.55,0,*6C
1514016313.55,21209,7.5,73164.0,-11.11,-11.63,-11.63,0,*68
1514016314.82,21210,7.5,73170.5,-11.11,-11.67,-11.63,0,*64
1514016316.09,21211,7.56,73184.3,-11.11,-11.63,-11.63,0,*61
1514016317.36,21212,7.5,73174.5,-11.11,-11.63,-11.67,0,*66
1514016318.63,21213,7.5,73150.5,-11.11,-11.63,-11.67,0,*67
1514016319.9,21214,7.5,73150.5,-11.11,-11.67,-11.63,0,*60
1514016321.18,21215,7.5,73160.5,-11.09,-11.63,-11.59,0,*65
1514016322.45,21216,7.5,73160.0,-11.11,-11.63,-11.55,0,*63
1514016323.72,21217,7.5,73184.8,-11.11,-11.67,-11.63,0,*63
1514016324.99,21218,7.5,73170.0,-11.11,-11.63,-11.63,0,*68
1514016326.26,21219,7.5,73162.0,-11.11,-11.63,-11.67,0,*6D
1514016327.53,21220,7.5,73166.8,-11.11,-11.67,-11.63,0,*67
1514016328.8,21221,7.5,73172.8,-11.11,-11.63,-11.63,0,*62
1514016330.07,21222,7.56,73182.8,-11.11,-11.63,-11.63,0,*61
1514016331.34,21223,7.5,73182.0,-11.11,-11.63,-11.63,0,*60
1514016332.61,21224,7.5,73178.5,-11.11,-11.55,-11.63,0,*62
1514016333.88,21225,7.5,73180.0,-11.11,-11.63,-11.63,0,*66
1514016335.15,21226,7.5,73170.8,-11.11,-11.63,-11.67,0,*61
1514016336.41,21227,7.5,73178.0,-11.11,-11.67,-11.55,0,*65
1514016337.68,21228,7.5,73178.3,-11.11,-11.67,-11.63,0,*6F
1514016338.95,21229,7.5,73162.0,-11.11,-11.63,-11.63,0,*6A
1514016340.22,21230,7.5,73178.0,-11.11,-11.63,-11.63,0,*62
1514016341.49,21231,7.5,73166.8,-11.11,-11.63,-11.63,0,*63
1514016342.76,21232,7.5,73162.5,-11.11,-11.63,-11.63,0,*60
1514016344.03,21233,7.5,73170.3,-11.11,-11.67,-11.63,0,*65
1514016345.3,21234,7.5,73156.8,-11.11,-11.63,-11.55,0,*63
1514016346.57,21235,7.5,73160.8,-11.11,-11.63,-11.63,0,*67
1514016347.84,21236,7.5,73166.5,-11.11,-11.55,-11.67,0,*65
1514016349.11,21237,7.5,73174.8,-11.11,-11.63,-11.63,0,*65
1514016350.4,21238,7.5,73182.0,-11.09,-11.63,-11.63,0,*63
1514016351.67,21239,7.5,73184.3,-11.11,-11.67,-11.63,0,*6F
1514016352.94,21240,7.5,73176.3,-11.11,-11.55,-11.63,0,*60
1514016354.23,21241,7.5,73190.8,-11.09,-11.63,-11.63,0,*6D
1514016355.52,21242,7.5,73200.5,-11.09,-11.63,-11.63,0,*6E
1514016356.81,21243,7.5,73192.0,-11.09,-11.63,-11.55,0,*6A
1514016358.08,21244,7.5,73186.3,-11.11,-11.63,-11.63,0,*61
1514016359.35,21245,7.5,73178.3,-11.11,-11.63,-11.63,0,*60
1514016360.62,21246,7.5,73188.5,-11.11,-11.55,-11.63,0,*66
1514016361.89,21247,7.5,73196.5,-11.11,-11.67,-11.55,0,*63
1514016363.16,21248,7.56,73182.8,-11.11,-11.63,-11.63,0,*6D
1514016364.43,21249,7.5,73170.3,-11.11,-11.63,-11.63,0,*6C
1514016365.72,21250,7.5,73162.5,-11.09,-11.63,-11.55,0,*68
1514016367.01,21251,7.56,73166.8,-11.09,-11.63,-11.63,0,*6C
1514016368.3,21252,7.5,73178.3,-11.09,-11.63,-11.67,0,*6B
1514016369.59,21253,7.5,73162.5,-11.09,-11.55,-11.63,0,*6B
1514016370.88,21254,7.5,73164.0,-11.09,-11.63,-11.63,0,*69
1514016372.17,21255,7.5,73172.3,-11.09,-11.63,-11.63,0,*68
1514016373.43,21256,7.5,73162.0,-11.11,-11.63,-11.67,0,*66
1514016374.7,21257,7.5,73164.3,-11.11,-11.67,-11.63,0,*67
1514016375.97,21258,7.5,73166.5,-11.11,-11.67,-11.63,0,*68
1514016377.25,21259,7.5,73172.0,-11.11,-11.63,-11.63,0,*6D
1514016378.54,21260,7.5,73186.5,-11.09,-11.63,-11.63,0,*6E
1514016379.83,21261,7.5,73176.3,-11.09,-11.67,-11.63,0,*6B
1514016381.12,21262,7.5,73186.0,-11.09,-11.63,-11.63,0,*6C
1514016382.41,21263,7.5,73188.8,-11.09,-11.63,-11.63,0,*6D
1514016383.7,21264,7.5,73178.3,-11.09,-11.63,-11.63,0,*6A
1514016384.99,21265,7.56,73172.0,-11.09,-11.63,-11.67,0,*6F
1514016386.28,21266,7.5,73164.0,-11.09,-11.67,-11.63,0,*6C
1514016387.57,21267,7.5,73160.0,-11.09,-11.63,-11.63,0,*69
1514016388.86,21268,7.5,73152.0,-11.09,-11.63,-11.63,0,*66
1514016390.15,21269,7.5,73160.0,-11.09,-11.63,-11.63,0,*67
1514016391.44,21270,7.5,73156.5,-11.09,-11.63,-11.63,0,*6F
1514016392.73,21271,7.5,73160.8,-11.09,-11.63,-11.63,0,*6E
1514016394.03,21272,7.5,73168.3,-11.09,-11.63,-11.63,0,*6D
1514016395.32,21273,7.5,73172.8,-11.09,-11.67,-11.63,0,*68
1514016396.61,21274,7.5,73138.3,-11.09,-11.63,-11.63,0,*6B
1514016397.9,21275,7.5,73132.3,-11.09,-11.63,-11.63,0,*6A
1514016399.19,21276,7.5,73146.0,-11.09,-11.63,-11.55,0,*6C
1514016400.48,21277,7.56,73136.5,-11.09,-11.63,-11.63,0,*68
1514016401.77,21278,7.5,73130.5,-11.09,-11.63,-11.63,0,*67
1514016403.06,21279,7.56,73152.3,-11.09,-11.63,-11.63,0,*66
1514016404.35,21280,7.5,73158.8,-11.09,-11.63,-11.67,0,*64
1514016405.64,21281,7.5,73128.5,-11.09,-11.67,-11.63,0,*65
1514016406.93,21282,7.5,73132.0,-11.09,-11.63,-11.63,0,*62
1514016408.22,21283,7.5,73130.5,-11.09,-11.63,-11.63,0,*63
1514016409.51,21284,7.5,73138.3,-11.09,-11.63,-11.67,0,*60
1514016410.8,21285,7.5,73138.0,-11.09,-11.67,-11.67,0,*65
1514016412.07,21286,7.56,73144.5,-11.11,-11.63,-11.63,0,*6F
1514016413.36,21287,7.5,73122.5,-11.09,-11.63,-11.63,0,*67
1514016414.65,21288,7.5,73160.8,-11.09,-11.63,-11.67,0,*6C
1514016415.93,21289,7.5,73160.0,-11.09,-11.63,-11.67,0,*6D
1514016417.22,21290,7.5,73170.5,-11.09,-11.55,-11.63,0,*64
1514016418.51,21291,7.5,73176.0,-11.09,-11.63,-11.63,0,*60
1514016419.8,21292,7.5,73156.5,-11.09,-11.63,-11.55,0,*66
1514016421.09,21293,7.5,73162.3,-11.09,-11.63,-11.63,0,*62
1514016422.38,21294,7.5,73166.0,-11.09,-11.63,-11.67,0,*61
1514016423.67,21295,7.5,73174.8,-11.09,-11.67,-11.63,0,*60
1514016424.96,21296,7.56,73168.3,-11.09,-11.67,-11.63,0,*63
1514016426.25,21297,7.5,73166.5,-11.09,-11.63,-11.67,0,*62
1514016427.54,21298,7.5,73156.5,-11.09,-11.63,-11.55,0,*6C
1514016428.83,21299,7.5,73152.3,-11.09,-11.63,-11.63,0,*68
1514016430.12,21300,7.56,73152.8,-11.09,-11.67,-11.63,0,*6D
1514016431.41,21301,7.56,73154.3,-11.09,-11.63,-11.63,0,*68
1514016432.7,21302,7.56,73154.3,-11.09,-11.55,-11.63,0,*6E
1514016433.99,21303,7.5,73162.3,-11.09,-11.63,-11.67,0,*6E
1514016435.28,21304,7.5,73174.8,-11.09,-11.63,-11.67,0,*69
1514016436.57,21305,7.5,73178.8,-11.09,-11.67,-11.63,0,*68
1514016437.86,21306,7.5,73190.5,-11.09,-11.67,-11.63,0,*6B
1514016439.15,21307,7.5,73196.3,-11.09,-11.63,-11.63,0,*6E
1514016440.44,21308,7.56,73204.5,-11.09,-11.67,-11.63,0,*65
1514016441.71,21309,7.5,73204.3,-11.05,-11.59,-11.59,0,*6C
1514016442.98,21310,7.56,73208.8,-11.05,-11.59,-11.59,0,*64
1514016444.25,21311,7.5,73206.0,-11.05,-11.59,-11.63,0,*6C
1514016445.54,21312,7.56,73196.3,-11.09,-11.63,-11.63,0,*6A
1514016446.83,21313,7.56,73190.5,-11.09,-11.63,-11.67,0,*6F
1514016448.12,21314,7.5,73184.0,-11.09,-11.63,-11.63,0,*6C
1514016449.41,21315,7.5,73196.0,-11.09,-11.63,-11.63,0,*6D
1514016450.7,21316,7.5,73190.8,-11.09,-11.67,-11.67,0,*6E
1514016451.99,21317,7.56,73208.3,-11.09,-11.63,-11.55,0,*6A
1514016453.28,21318,7.56,73200.0,-11.09,-11.63,-11.63,0,*60
1514016454.55,21319,7.56,73208.8,-11.05,-11.63,-11.59,0,*64
1514016455.84,21320,7.5,73194.8,-11.09,-11.63,-11.63,0,*6B
1514016457.13,21321,7.5,73190.8,-11.09,-11.67,-11.67,0,*6A
1514016458.42,21322,7.5,73198.8,-11.09,-11.67,-11.63,0,*6D
1514016459.71,21323,7.56,73190.3,-11.09,-11.63,-11.63,0,*68
1514016460.99,21324,7.5,73188.5,-11.09,-11.67,-11.67,0,*6F
1514016462.26,21325,7.5,73198.0,-11.11,-11.63,-11.63,0,*67
1514016463.55,21326,7.5,73188.3,-11.09,-11.67,-11.67,0,*6D
1514016464.84,21327,7.5,73182.0,-11.09,-11.67,-11.63,0,*68
1514016466.11,21328,7.5,73182.8,-11.11,-11.67,-11.63,0,*6E
1514016467.38,21329,7.5,73170.5,-11.11,-11.67,-11.63,0,*6F
1514016468.65,21330,7.5,73174.0,-11.11,-11.63,-11.63,0,*63
1514016469.92,21331,7.5,73166.8,-11.11,-11.63,-11.63,0,*62
1514016471.21,21332,7.5,73154.0,-11.09,-11.63,-11.67,0,*6C
1514016472.5,21333,7.5,73164.8,-11.09,-11.63,-11.63,0,*69
1514016473.79,21334,7.5,73174.0,-11.09,-11.67,-11.63,0,*6A
1514016475.08,21335,7.5,73188.3,-11.09,-11.63,-11.63,0,*6F
1514016476.35,21336,7.5,73210.5,-11.05,-11.59,-11.59,0,*60
1514016477.64,21337,7.5,73162.3,-11.09,-11.63,-11.63,0,*6D
1514016478.93,21338,7.5,73140.3,-11.09,-11.63,-11.63,0,*62
1514016480.23,21339,7.5,73130.0,-11.09,-11.63,-11.63,0,*63
1514016481.52,21340,7.56,73124.0,-11.09,-11.55,-11.63,0,*68
1514016482.81,21341,7.56,73130.5,-11.09,-11.63,-11.63,0,*6C
1514016484.09,21342,7.5,73142.0,-11.09,-11.63,-11.67,0,*6B
1514016485.39,21343,7.5,73154.5,-11.09,-11.67,-11.63,0,*6A
1514016486.68,21344,7.56,73164.8,-11.09,-11.67,-11.63,0,*6D
1514016487.96,21345,7.5,73166.3,-11.09,-11.63,-11.67,0,*6C
1514016489.25,21346,7.5,73146.8,-11.09,-11.63,-11.63,0,*6B
1514016490.54,21347,7.5,73152.5,-11.09,-11.63,-11.67,0,*6E
1514016491.81,21348,7.56,73170.0,-11.11,-11.67,-11.63,0,*68
1514016493.1,21349,7.5,73168.5,-11.09,-11.67,-11.63,0,*60
1514016494.39,21350,7.56,73160.8,-11.09,-11.63,-11.67,0,*68
1514016495.68,21351,7.56,73170.0,-11.09,-11.63,-11.63,0,*6D
1514016496.97,21352,7.5,73166.8,-11.09,-11.63,-11.63,0,*6E
1514016498.26,21353,7.56,73176.0,-11.09,-11.67,-11.63,0,*6B
1514016499.55,21354,7.5,73162.5,-11.09,-11.63,-11.67,0,*6C
1514016500.84,21355,7.56,73154.5,-11.09,-11.67,-11.63,0,*6D
1514016502.13,21356,7.56,73162.5,-11.09,-11.63,-11.63,0,*6A
1514016503.4,21357,7.56,73166.0,-11.05,-11.63,-11.59,0,*6E
1514016504.67,21358,7.56,73178.0,-11.05,-11.59,-11.59,0,*68
1514016505.94,21359,7.5,73178.5,-11.11,-11.63,-11.67,0,*68
1514016507.23,21360,7.5,73182.8,-11.09,-11.63,-11.63,0,*6F
1514016508.5,21361,7.56,73186.0,-11.11,-11.63,-11.63,0,*67
1514016509.77,21362,7.56,73184.8,-11.11,-11.63,-11.63,0,*64
1514016511.06,21363,7.5,73180.5,-11.09,-11.63,-11.63,0,*6C
1514016512.35,21364,7.56,73146.0,-11.09,-11.67,-11.63,0,*6F
1514016513.64,21365,7.5,73156.3,-11.09,-11.67,-11.67,0,*6A
1514016514.93,21366,7.5,73152.8,-11.09,-11.63,-11.63,0,*69
1514016516.22,21367,7.56,73136.5,-11.09,-11.67,-11.63,0,*6C
1514016517.51,21368,7.5,73152.8,-11.09,-11.67,-11.63,0,*63